Torna al catalogo

STARLINK-5577

AttivoComunicazioniVLEO
NORAD 55751·PAYLOAD·🇺🇸 United States

Lanciato Mar 3, 2023 da Vandenberg Space Force Base

Loading…

Prossimi Passaggi (prossime 24 ore)

TLE

AggiornatoSource: CelesTrak SupGP

Epoca: Sep 14, 2026, 21:17 UTC

1 55751C 23028L   26257.88729167 -.00015702  00000+0 -13160-2 0  2574
2 55751  70.0000 127.5151 0002752 271.0669 241.6558 14.98337253    18

Traccia STARLINK-5577 in tempo reale con AllMySat

Download on the App Store